Location: *
(41.7492°S, 135.4150°W)
Time: 21:39:23
(UTC+00:00)

TIGRISAT - Pass Details

Date: 09 July 2022
Orbit: 604 x 686 km, 97.7° (Epoch: 14 August)

Event Time Altitude Azimuth Distance (km) Brightness Sun altitude
Rises 14:26:54 0° 154° (SSE) 3,079 ? -21.9°
Reaches altitude 10° 14:29:39 10° 138° (SE) 2,145 ? -21.4°
Maximum altitude 14:33:16 22° 88° (E) 1,481 ? -20.7°
Drops below altitude 10° 14:36:48 10° 37° (NE) 2,088 ? -20.1°
Sets 14:39:26 0° 21° (NNE) 2,975 ? -19.6°
